Skip Page Navigation
NASA JPL Caltech
NASA Logo - Jet Propulsion Laboratory + View the NASA Portal
+ Center for Near-Earth Object Studies
JPL Home Earth Solar System Stars & Galaxies Technology
JPL Solar System Dynamics
BODIES ORBITS EPHEMERIDES TOOLS PHYSICAL DATA DISCOVERY FAQ SITE MAP
JPL Small-Body Database Browser
Search: [ help ]  
34359 (2000 RN26)
Classification: Main-belt Asteroid          SPK-ID: 2034359
Ephemeris | Orbit Diagram | Orbital Elements | Mission Design | Physical Parameters | Discovery Circumstances | Close-Approach Data ]

[ show orbit diagram ]
Orbital Elements at Epoch 2459000.5 (2020-May-31.0) TDB
Reference: JPL 20 (heliocentric ecliptic J2000)
 Element Value Uncertainty (1-sigma)   Units 
e .05410360120243344 4.3434e-08  
a 3.160734966971024 2.4997e-08 au
q 2.989727822811437 1.4159e-07 au
i 8.708248989705549 4.3386e-06 deg
node 248.2333864412296 3.5402e-05 deg
peri 59.22801272664097 6.3198e-05 deg
M 225.7201560027682 5.5814e-05 deg
tp 2459766.076996630596
(2022-Jul-05.57699663)
0.00032268 TDB
period 2052.487630181461
5.62
2.4349e-05
6.666e-08
d
yr
n .1753969157749186 2.0807e-09 deg/d
Q 3.331742111130611 2.635e-08 au
  Orbit Determination Parameters
   # obs. used (total)      1009  
   data-arc span      8065 days (22.08 yr)  
   first obs. used      1998-03-31  
   last obs. used      2020-04-29  
   planetary ephem.      DE431  
   SB-pert. ephem.      SB431-N16  
   condition code      0  
   norm. resid. RMS      .5316  
   source      ORB  
   producer      Otto Matic  
   solution date      2020-May-20 07:47:31  

Additional Information
 Earth MOID = 1.98627 au 
 Jupiter MOID = 1.81351 au 
 T_jup = 3.185 
[ show covariance matrix ]

Ephemeris | Orbit Diagram | Orbital Elements | Mission Design | Physical Parameters | Discovery Circumstances | Close-Approach Data ]

Physical Parameter Table
Parameter Symbol Value Units Sigma Reference Notes
absolute magnitude H 13.8   n/a MPO279871  
diameter diameter 9.895 km 0.242 urn:nasa:pds:neowise_diameters_albedos::2.0[mainbelt] (http://adsabs.harvard.edu/abs/2011ApJ...741...68M)  
geometric albedo albedo 0.054   0.006 urn:nasa:pds:neowise_diameters_albedos::2.0[mainbelt] (http://adsabs.harvard.edu/abs/2011ApJ...741...68M)  

34359 (2000 RN26)          Discovered 2000-Sep-01 by LINEAR at Socorro
Reference: 20020128/Numbers.arcLast Updated: 2004-04-19

[ show close-approach data ]
Ephemeris | Orbit Diagram | Orbital Elements | Mission Design | Physical Parameters | Discovery Circumstances | Close-Approach Data ]
ABOUT SSD CREDITS/AWARDS PRIVACY/COPYRIGHT GLOSSARY LINKS
FirstGov 2020-Jul-06 00:26 UT
(server date/time)  
NASA Home Page
Site Manager:   Ryan S. Park
Webmaster  Alan B. Chamberlin